LiveATC.Net - Listen to live air traffic control over the Internet!


ICAO: CYHU  IATA: YHU   Airport: Saint-Hubert Airport
City: Montreal   State/Province: Quebec
Country: Canada   Continent: North America
CYHU METAR Weather: CYHU 151800Z AUTO 23012G17KT 210V280 9SM FEW060 26/16 A3002 RMK SLP166 DENSITY ALT 1200FT
CYHU Flight Activity (FlightAware)
CYHU Webcam:  (Airport Webcams) 

CYHU Tower #1
Feed Status: UP   Listeners: 1
Listen in your browser - HTML5 player (in browser, HTML5)
Click here to listen with your own player (launches your MP3 player)
CYHU Tower #1 Audio Archives
FacilityFrequency
Saint-Hubert Tower118.400
Saint-Hubert Tower121.300
Sponsored by: Air High Way

NOTICE

Unauthorized use prohibited. See LiveATC.net Terms of Service


Find LiveATC Audio Streams


Airport/ARTCC Code

Frequency Search
(e.g., 124.400, 128.75)
Site-wide search
 


Browse LiveATC Feeds
Top 50 LiveATC Feeds
LiveATC Feed Map
Bad Weather Areas

LiveATC FAQ
Offer LiveATC feed
Contact LiveATC.net
Press Inquiries

LiveATC on iPhone
LiveATC on Android

Windows Phone
Windows 8/10

LiveATC Mobile
(Mobile browser)

ATC Audio Archives
Interesting Recordings

LiveATC Forums


Home Page
About LiveATC.net
Make a Donation
Terms of Use
Privacy Policy

Canadian Air Freqs

AIRMETs/SIGMETs

FAA Airport Status
Nat'l Airspace Status
Arrival Demand Charts


Server Software By:
Icecast.org
Liquidsoap